Weather History for KDEW - January, 2013

Change the Weather History Date:

Sunday, January 6, 2013

  Actual Average Record
Temperature  
Mean Temperature 26 °F 26 °F  
Max Temperature 27 °F 32 °F 43 °F (2015)
Min Temperature 24 °F 20 °F -4 °F (2004)
Degree Days  
Heating Degree Days 39 39  
Month to date heating degree days 273 237  
Since 1 July heating degree days 3066 3464  
Cooling Degree Days 0 0  
Month to date cooling degree days 0 0  
Year to date cooling degree days 0 0  
Moisture  
Dew Point 24 °F    
Average Humidity 96    
Maximum Humidity 100    
Minimum Humidity 92    
Precipitation  
Precipitation 0.08 in 0.10 in 0.68 in (2002)
Month to date precipitation 0.09 0.63  
Year to date precipitation 0.09 0.63  
Sea Level Pressure  
Sea Level Pressure 30.14 in    
Wind  
Wind Speed 1 mph (SW)    
Max Wind Speed 8 mph    
Max Gust Speed 10 mph    
Visibility 3 miles    
Events Snow    
T = Trace of Precipitation, MM = Missing Value Source: NWS Daily Summary

Daily Weather History Graph

Daily Weather History Graph

Search for Another Location

Airport or City:

Trip Planner

Search our weather history database for the weather conditions in past years. The results will help you decide how hot, cold, wet, or windy it might be!

Date:

Astronomy

Jan. 06, 2013 Rise Set
Actual Time 7:38 AM PST 4:13 PM PST
Civil Twilight 7:02 AM PST 4:48 PM PST
Nautical Twilight 6:23 AM PST 5:28 PM PST
Astronomical Twilight 5:46 AM PST 6:05 PM PST
Moon 1:48 AM PST (1/6) 11:51 AM PST (1/6)
Length of Visible Light 9h 46m
Length of Day
8h 34m
Waning Crescent, 32% of the Moon is Illuminated
Jan 6
Waning Crescent
Jan 11
New
Jan 18
First Quarter
Jan 26
Full
Feb 3
Last Quarter

Hourly Weather History & Observations

Time (PST) Temp. Windchill Dew Point Humidity Pressure Visibility Wind Dir Wind Speed Gust Speed Precip Events Conditions
12:05 AM 24.8 °F 20.5 °F 24.8 °F 100% 30.16 in 2.0 mi WSW 3.5 mph - 0.00 in Snow Light Snow
12:13 AM 24.8 °F 20.5 °F 23.0 °F 93% 30.16 in 1.8 mi WSW 3.5 mph - 0.00 in Snow Light Snow
12:27 AM 24.8 °F 20.5 °F 23.0 °F 93% 30.15 in 2.0 mi WSW 3.5 mph - 0.00 in Snow Light Snow
12:38 AM 24.8 °F - 23.0 °F 93% 30.14 in 1.2 mi Calm Calm - 0.00 in Snow Light Snow
12:53 AM 25.0 °F - 23.0 °F 92% 30.22 in 1.8 mi Calm Calm - 0.00 in Snow Light Snow
1:04 AM 24.8 °F 20.5 °F 23.0 °F 93% 30.14 in 2.5 mi WSW 3.5 mph - 0.00 in Snow Light Snow
2:46 AM 24.8 °F 20.5 °F 23.0 °F 93% 30.15 in 2.0 mi West 3.5 mph - 0.00 in Snow Light Snow
2:53 AM 24.1 °F - 23.0 °F 96% 30.22 in 2.0 mi Calm Calm - 0.00 in Snow Light Snow
3:14 AM 24.8 °F - 23.0 °F 93% 30.15 in 1.2 mi Calm Calm - 0.00 in Snow Light Snow
3:30 AM 24.8 °F - 23.0 °F 93% 30.13 in 1.0 mi Calm Calm - 0.00 in Snow Light Snow
3:53 AM 24.1 °F - 23.0 °F 96% 30.21 in 1.0 mi Calm Calm - 0.00 in Snow Light Snow
4:53 AM 24.1 °F - 23.0 °F 96% 30.20 in 1.5 mi Calm Calm - 0.01 in Snow Light Snow
5:07 AM 24.8 °F - 23.0 °F 93% 30.12 in 2.5 mi Calm Calm - 0.00 in Snow Light Snow
5:13 AM 24.8 °F - 23.0 °F 93% 30.12 in 3.0 mi Calm Calm - 0.00 in Snow Light Snow
5:17 AM 24.8 °F - 23.0 °F 93% 30.12 in 2.5 mi Calm Calm - 0.00 in Snow Light Snow
5:38 AM 24.8 °F - 23.0 °F 93% 30.11 in 6.0 mi Calm Calm - 0.00 in   Overcast
5:53 AM 24.1 °F - 23.0 °F 96% 30.19 in 7.0 mi Calm Calm - 0.00 in   Overcast
6:53 AM 24.1 °F - 23.0 °F 96% 30.19 in 7.0 mi Calm Calm - N/A   Overcast
7:09 AM 24.8 °F - 23.0 °F 93% 30.11 in 8.0 mi Calm Calm - N/A   Overcast
7:53 AM 25.0 °F - 24.1 °F 96% 30.20 in 2.0 mi Calm Calm - N/A   Overcast
8:01 AM 24.8 °F - 24.8 °F 100% 30.12 in 1.5 mi Calm Calm - N/A   Overcast
8:53 AM 25.0 °F - 24.1 °F 96% 30.22 in 1.5 mi Calm Calm - N/A   Overcast
9:33 AM 24.8 °F - 24.8 °F 100% 30.14 in 2.0 mi Calm Calm - N/A   Overcast
9:43 AM 24.8 °F - 24.8 °F 100% 30.15 in 1.5 mi Calm Calm - N/A   Overcast
10:34 AM 26.6 °F - 24.8 °F 93% 30.14 in 2.0 mi Calm Calm - N/A   Overcast
10:53 AM 26.1 °F 20.5 °F 25.0 °F 96% 30.22 in 3.0 mi SSW 4.6 mph - N/A   Overcast
11:53 AM 27.0 °F 23.0 °F 25.0 °F 92% 30.19 in 4.0 mi South 3.5 mph - N/A   Overcast
12:53 PM 27.0 °F 21.6 °F 25.0 °F 92% 30.17 in 5.0 mi SSW 4.6 mph - N/A   Overcast
1:53 PM 27.0 °F 21.6 °F 25.0 °F 92% 30.16 in 5.0 mi SW 4.6 mph - N/A   Overcast
2:53 PM 27.0 °F 20.5 °F 25.0 °F 92% 30.16 in 7.0 mi SSW 5.8 mph - N/A   Overcast
3:53 PM 27.0 °F 19.5 °F 25.0 °F 92% 30.17 in 6.0 mi West 6.9 mph - N/A   Overcast
4:53 PM 26.1 °F 21.9 °F 25.0 °F 96% 30.17 in 6.0 mi SW 3.5 mph - N/A   Overcast
5:53 PM 26.1 °F - 25.0 °F 96% 30.16 in 6.0 mi Calm Calm - N/A   Overcast
6:53 PM 26.1 °F - 25.0 °F 96% 30.16 in 5.0 mi Calm Calm - N/A   Overcast
7:09 PM 26.6 °F - 26.6 °F 100% 30.08 in 6.0 mi Calm Calm - N/A   Overcast
7:25 PM 26.6 °F - 24.8 °F 93% 30.08 in 5.0 mi Calm Calm - N/A   Overcast
7:53 PM 27.0 °F - 25.0 °F 92% 30.16 in 3.0 mi Calm Calm - 0.00 in Snow Light Snow
8:53 PM 26.1 °F - 25.0 °F 96% 30.15 in 5.0 mi Calm Calm - 0.00 in   Overcast
9:04 PM 26.6 °F - 24.8 °F 93% 30.08 in 4.0 mi Calm Calm - 0.00 in Snow Light Snow
9:16 PM 26.6 °F - 24.8 °F 93% 30.07 in 2.5 mi Calm Calm - 0.00 in Snow Light Snow
9:34 PM 26.6 °F - 26.6 °F 100% 30.07 in 1.8 mi Calm Calm - 0.01 in Snow Light Snow
9:47 PM 26.6 °F - 24.8 °F 93% 30.07 in 2.0 mi Calm Calm - 0.01 in Snow Light Snow
9:53 PM 27.0 °F - 25.0 °F 92% 30.15 in 1.8 mi Calm Calm - 0.01 in Snow Light Snow
10:11 PM 26.6 °F - 26.6 °F 100% 30.07 in 1.2 mi Calm Calm - 0.00 in Snow Light Snow
10:21 PM 26.6 °F - 26.6 °F 100% 30.06 in 1.2 mi Calm Calm - 0.01 in Snow Light Snow
10:42 PM 26.6 °F - 24.8 °F 93% 30.05 in 0.8 mi Calm Calm - 0.02 in Snow Light Snow
10:53 PM 27.0 °F - 26.1 °F 96% 30.13 in 1.0 mi Calm Calm - 0.03 in Snow Light Snow
11:09 PM 26.6 °F - 24.8 °F 93% 30.04 in 1.0 mi Calm Calm - 0.01 in Snow Light Snow
11:34 PM 26.6 °F - 26.6 °F 100% 30.04 in 1.0 mi Calm Calm - 0.02 in Snow Light Snow
11:41 PM 26.6 °F - 26.6 °F 100% 30.04 in 1.0 mi Calm Calm - 0.02 in Snow Light Snow
11:53 PM 27.0 °F - 26.1 °F 96% 30.11 in 1.0 mi Calm Calm - 0.03 in Snow Light Snow